Find Starlink 11467

NORAD ID: 62068 Int'l Des: 2024-217 Owner: SPXS Country: US Constellation: starlink operational
又名: STARLINK-11467 [DTC] celestrak
LEOCIRCULAR

当前视图

正在加载3D地球...

About Starlink 11467

Starlink 11467 (NORAD 62068) is a starlink constellation satellite (v2 mini d2c) launched Nov 24, 2024 by SPXS of US. It operates in LEO, CIRCULAR orbit with a mass of 960.00 kg.

即将过境

Passes for default location (London). Set your location on the main map for personalized predictions.

高度历史

Loading altitude history...

两行轨道根数

1 62068U 24217M 26265.42051111 .00067509 00000-0 55721-3 0 9994
2 62068 53.1575 181.3448 0001322 96.6375 263.4793 15.69724797106078
Epoch: Sep 22, 2026 • Age: 18 hours

当前状态

高度 362.4 km
远地点 / 近地点 N/A
速度 7.69 km/s
星下点 -9.64°S, 102.62°E
发射日期 Nov 24, 2024
运行时间 1.8 years
类型 internet

技术详情

分类 Payload
质量 960.00 kg
干质量 910.00 kg
长度 0.30 m
跨度 29.00 m
形状 ? Box + pan
制造商 SPXS
平台类型 Starlink V2MD
阶段状态 In Orbit
所有者/国家 SPXS/US

Most Searched